Regional Weather Roundup
Issued by NWS

Home | Current Version | Previous Version | Graphics & Text | Print | Product List | Glossary On
Versions: 1 2 3 4 5 6 7 8 9 10 11 12 13 14 15 16 17 18 19 20 21 22 23 24 25 26 27 28 29 30 31 32 33 34 35 36 37 38 39 40 41 42 43 44 45 46 47 48 49 50
000
ASUS43 KLSX 170110
RWRMO

WEATHER SUMMARY FOR MISSOURI
NATIONAL WEATHER SERVICE SPRINGFIELD MO
700 PM CST MON JAN 16 2017

NOTE: "FAIR" INDICATES FEW OR NO CLOUDS BELOW 12,000 FEET WITH NO
       SIGNIFICANT WEATHER AND/OR OBSTRUCTIONS TO VISIBILITY.
       CURRENT SKY AND/OR WEATHER CONDITIONS ARE NOT AVAILABLE FOR
       CHILLICOTHE AND FARMINGTON.

MOZ001>031-035>038-043-044-053-054-170200-
...NORTHERN AND WESTERN MISSOURI...

CITY           SKY/WX    TMP DP  RH WIND       PRES   REMARKS
KANSAS CTY INT LGT RAIN  42  40  92 W12       29.89R
KANSAS C DTWN  CLOUDY    44  41  89 SW12G20   29.89R
LEE`S SUMMIT   CLOUDY    43  32  65 SW15      29.90R
ST JOSEPH      CLOUDY    41  41 100 NW12      29.89R
CHILLICOTHE      N/A     45  45 100 CALM      29.88R
KIRKSVILLE     LGT RAIN  41  41 100 MISG      29.87R FOG

$$
MOZ066>068-077>081-088>096-101>105-170200-
...SOUTHWEST MISSOURI...

CITY           SKY/WX    TMP DP  RH WIND       PRES   REMARKS
SPRINGFIELD    CLEAR     53  46  77 W16G23    29.91R
JOPLIN         CLOUDY    43  37  79 SW15G25   29.99R
BRANSON        CLEAR     57  48  72 SW5       29.92R

$$
MOZ032>034-039>042-045>050-055>058-069>072-170200-
...CENTRAL MISSOURI...

CITY           SKY/WX    TMP DP  RH WIND       PRES   REMARKS
COLUMBIA       CLOUDY    55  54  96 S9        29.83F
JEFFERSON CITY CLOUDY    55  54  96 SE8       29.84F
ROLLA          CLOUDY    56  55  97 S10       29.85F
SEDALIA        CLOUDY    51  47  86 W14G25    29.88R
WHITEMAN AFB   CLOUDY    48  48 100 W16G24    29.86S
WARRENSBURG    CLOUDY    45  41  87 SW15G23   29.89R
OSAGE BEACH    MOCLDY    56  54  93 S8        29.85S

$$
MOZ051-052-059>065-170200-
...EAST CENTRAL MISSOURI...

CITY           SKY/WX    TMP DP  RH WIND       PRES   REMARKS
ST LOUIS INTL  CLOUDY    54  52  93 CALM      29.89F FOG
SPIRIT OF STL  CLOUDY    51  51 100 E3        29.89F FOG
ST CHARLES     CLOUDY    51  51 100 E8        29.90F FOG

$$
MOZ072>076-082>087-097>100-106>115-170200-
...SOUTH CENTRAL AND SOUTHEAST MISSOURI...

CITY           SKY/WX    TMP DP  RH WIND       PRES   REMARKS
CAPE GIRARDEAU LGT RAIN  61  58  90 S16       29.94F
FARMINGTON     CLOUDY    56  56 100 S6        29.92S
POPLAR BLUFF   CLOUDY    62  60  93 S14G23    29.94R
WEST PLAINS    CLOUDY    59  58  96 SW9       29.92R

$$



USA.gov is the U.S. government's official web portal to all federal, state and local government web resources and services.